| time (UTC) | temp F | wind direction | speed MPH | gust MPH | rain 1hr in | rain 24hr in | rain mn in | humidity % | barometer mb |
| 20260506050522 | 66 | 33 | 1.0 | 3.0 | 0.00 | 0.00 | 0.00 | 72 | 1009.8 |
| 20260506044517 | 67 | 41 | 1.0 | 3.0 | 0.00 | 0.00 | 0.00 | 71 | 1009.6 |
| 20260506043537 | 68 | 34 | 1.0 | 4.0 | 0.00 | 0.00 | 0.00 | 71 | 1009.7 |
| 20260506042518 | 69 | 353 | 1.0 | 6.0 | 0.00 | 0.00 | 0.00 | 71 | 1009.8 |
| 20260506041558 | 69 | 10 | 1.0 | 4.0 | 0.00 | 0.00 | 0.00 | 71 | 1009.6 |
| 20260506040536 | 70 | 25 | 1.0 | 5.0 | 0.00 | 0.00 | 0.00 | 70 | 1009.4 |
| 20260506035558 | 70 | 17 | 0.0 | 3.0 | 0.00 | 0.00 | 0.00 | 70 | 1009.1 |
| 20260506034515 | 70 | 348 | 1.0 | 5.0 | 0.00 | 0.00 | 0.00 | 69 | 1009.0 |
| 20260506033515 | 70 | 22 | 1.0 | 4.0 | 0.00 | 0.00 | 0.00 | 68 | 1008.9 |
| 20260506032539 | 71 | 36 | 1.0 | 5.0 | 0.00 | 0.00 | 0.00 | 67 | 1008.6 |
| 20260506031515 | 71 | 32 | 1.0 | 5.0 | 0.00 | 0.00 | 0.00 | 65 | 1008.4 |
| 20260506030516 | 71 | 48 | 1.0 | 5.0 | 0.00 | 0.00 | 0.00 | 65 | 1008.3 |
| 20260506025556 | 72 | 7 | 1.0 | 3.0 | 0.00 | 0.00 | 0.00 | 66 | 1008.3 |
| 20260506024556 | 72 | 22 | 1.0 | 4.0 | 0.00 | 0.00 | 0.00 | 66 | 1008.1 |
| 20260506023517 | 73 | 5 | 1.0 | 4.0 | 0.00 | 0.00 | 0.00 | 65 | 1007.8 |
| 20260506022517 | 73 | 356 | 1.0 | 4.0 | 0.00 | 0.00 | 0.00 | 66 | 1007.6 |
| 20260506021517 | 74 | 19 | 1.0 | 4.0 | 0.00 | 0.00 | 0.00 | 65 | 1007.4 |
| 20260506020517 | 74 | 319 | 1.0 | 4.0 | 0.00 | 0.00 | 0.00 | 64 | 1007.0 |
| 20260506015517 | 75 | 30 | 1.0 | 8.0 | 0.00 | 0.00 | 0.00 | 64 | 1006.7 |
| 20260506014517 | 76 | 28 | 2.0 | 6.0 | 0.00 | 0.00 | 0.00 | 64 | 1006.5 |
| 20260506013518 | 77 | 22 | 2.0 | 6.0 | 0.00 | 0.00 | 0.00 | 64 | 1006.4 |
| 20260506012538 | 78 | 45 | 2.0 | 6.0 | 0.00 | 0.00 | 0.00 | 62 | 1006.0 |
| 20260506011518 | 79 | 25 | 1.0 | 4.0 | 0.00 | 0.00 | 0.00 | 60 | 1005.9 |
| 20260506010518 | 79 | 17 | 1.0 | 3.0 | 0.00 | 0.00 | 0.00 | 59 | 1006.0 |
| 20260506005518 | 80 | 36 | 1.0 | 6.0 | 0.00 | 0.00 | 0.00 | 59 | 1005.6 |
| 20260506004515 | 81 | 48 | 2.0 | 6.0 | 0.00 | 0.00 | 0.00 | 58 | 1005.4 |
| 20260506003538 | 82 | 357 | 0.0 | 2.0 | 0.00 | 0.00 | 0.00 | 57 | 1005.5 |
| 20260506002515 | 82 | 19 | 0.0 | 2.0 | 0.00 | 0.00 | 0.00 | 56 | 1005.4 |
| 20260506001515 | 83 | 7 | 0.0 | 2.0 | 0.00 | 0.00 | 0.00 | 54 | 1005.4 |
| 20260506000516 | 84 | 17 | 1.0 | 3.0 | 0.00 | 0.00 | 0.00 | 55 | 1005.3 |
| 20260505235516 | 84 | 4 | 1.0 | 2.0 | 0.00 | 0.00 | 0.00 | 55 | 1005.0 |
| 20260505234516 | 86 | 317 | 1.0 | 5.0 | 0.00 | 0.00 | 0.00 | 53 | 1004.9 |
| 20260505233516 | 87 | 306 | 1.0 | 3.0 | 0.00 | 0.00 | 0.00 | 48 | 1004.7 |
| 20260505232517 | 88 | 311 | 0.0 | 3.0 | 0.00 | 0.00 | 0.00 | 47 | 1004.5 |
| 20260505231516 | 89 | 350 | 0.0 | 3.0 | 0.00 | 0.00 | 0.00 | 46 | 1004.2 |
| 20260505230537 | 90 | 264 | 1.0 | 5.0 | 0.00 | 0.00 | 0.00 | 56 | 1004.2 |
| 20260505225517 | 91 | 213 | 2.0 | 6.0 | 0.00 | 0.00 | 0.00 | 55 | 1004.0 |
| 20260505224518 | 91 | 200 | 2.0 | 5.0 | 0.00 | 0.00 | 0.00 | 54 | 1003.8 |
| 20260505223517 | 92 | 215 | 3.0 | 6.0 | 0.00 | 0.00 | 0.00 | 50 | 1003.8 |
| 20260505222517 | 93 | 243 | 3.0 | 7.0 | 0.00 | 0.00 | 0.00 | 47 | 1003.6 |
| 20260505221518 | 93 | 229 | 3.0 | 6.0 | 0.00 | 0.00 | 0.00 | 41 | 1003.4 |
| 20260505220518 | 93 | 238 | 2.0 | 5.0 | 0.00 | 0.00 | 0.00 | 40 | 1003.5 |
| 20260505215518 | 93 | 232 | 3.0 | 7.0 | 0.00 | 0.00 | 0.00 | 41 | 1003.5 |
| 20260505214515 | 92 | 221 | 2.0 | 4.0 | 0.00 | 0.00 | 0.00 | 48 | 1003.6 |
| 20260505213515 | 91 | 195 | 1.0 | 5.0 | 0.00 | 0.00 | 0.00 | 49 | 1003.7 |
| 20260505212516 | 91 | 216 | 3.0 | 6.0 | 0.00 | 0.00 | 0.00 | 47 | 1003.8 |
| 20260505211556 | 91 | 236 | 2.0 | 5.0 | 0.00 | 0.00 | 0.00 | 48 | 1003.9 |
| 20260505210516 | 91 | 235 | 3.0 | 7.0 | 0.00 | 0.00 | 0.00 | 49 | 1004.1 |
| 20260505205516 | 91 | 235 | 3.0 | 9.0 | 0.00 | 0.00 | 0.00 | 49 | 1004.4 |
| 20260505204517 | 91 | 231 | 4.0 | 8.0 | 0.00 | 0.00 | 0.00 | 50 | 1004.3 |
| 20260505203517 | 90 | 236 | 3.0 | 8.0 | 0.00 | 0.00 | 0.00 | 49 | 1004.4 |
| 20260505202517 | 90 | 223 | 3.0 | 8.0 | 0.00 | 0.00 | 0.00 | 52 | 1004.6 |
| 20260505201517 | 90 | 215 | 5.0 | 12.0 | 0.00 | 0.00 | 0.00 | 52 | 1004.7 |
| 20260505200517 | 90 | 239 | 3.0 | 8.0 | 0.00 | 0.00 | 0.00 | 52 | 1004.9 |
| 20260505195517 | 89 | 232 | 4.0 | 9.0 | 0.00 | 0.00 | 0.00 | 53 | 1004.8 |
| 20260505194518 | 88 | 240 | 4.0 | 9.0 | 0.00 | 0.00 | 0.00 | 56 | 1004.8 |
| 20260505193518 | 89 | 203 | 3.0 | 8.0 | 0.00 | 0.00 | 0.00 | 57 | 1004.9 |
| 20260505192518 | 88 | 227 | 3.0 | 7.0 | 0.00 | 0.00 | 0.00 | 57 | 1004.9 |
| 20260505191518 | 87 | 222 | 4.0 | 11.0 | 0.00 | 0.00 | 0.00 | 57 | 1004.9 |
| 20260505190518 | 87 | 231 | 4.0 | 9.0 | 0.00 | 0.00 | 0.00 | 58 | 1005.0 |
| 20260505185516 | 86 | 211 | 4.0 | 9.0 | 0.00 | 0.00 | 0.00 | 61 | 1005.1 |
| 20260505184535 | 86 | 201 | 4.0 | 13.0 | 0.00 | 0.00 | 0.00 | 61 | 1005.1 |
| 20260505183515 | 86 | 219 | 5.0 | 11.0 | 0.00 | 0.00 | 0.00 | 61 | 1005.3 |
| 20260505182516 | 85 | 208 | 4.0 | 10.0 | 0.00 | 0.00 | 0.00 | 62 | 1005.3 |
| 20260505181516 | 85 | 226 | 3.0 | 8.0 | 0.00 | 0.00 | 0.00 | 63 | 1005.3 |
| 20260505180516 | 84 | 217 | 3.0 | 8.0 | 0.00 | 0.00 | 0.00 | 65 | 1005.4 |
| 20260505175516 | 84 | 212 | 4.0 | 12.0 | 0.00 | 0.00 | 0.00 | 65 | 1005.5 |
| 20260505174536 | 83 | 222 | 4.0 | 9.0 | 0.00 | 0.00 | 0.00 | 65 | 1005.5 |
| 20260505173517 | 82 | 208 | 5.0 | 10.0 | 0.00 | 0.00 | 0.00 | 66 | 1005.4 |
| 20260505172516 | 82 | 222 | 5.0 | 11.0 | 0.00 | 0.00 | 0.00 | 67 | 1005.5 |
| 20260505171517 | 82 | 227 | 5.0 | 11.0 | 0.00 | 0.00 | 0.00 | 67 | 1005.6 |
| 20260505170517 | 82 | 212 | 4.0 | 10.0 | 0.00 | 0.00 | 0.00 | 66 | 1005.6 |
| 20260505165517 | 82 | 228 | 5.0 | 11.0 | 0.00 | 0.00 | 0.00 | 66 | 1005.6 |
| 20260505164537 | 82 | 220 | 4.0 | 9.0 | 0.00 | 0.00 | 0.00 | 67 | 1005.6 |
| 20260505163518 | 81 | 229 | 5.0 | 9.0 | 0.00 | 0.00 | 0.00 | 68 | 1005.4 |
| 20260505162518 | 81 | 223 | 6.0 | 11.0 | 0.00 | 0.00 | 0.00 | 68 | 1005.2 |
| 20260505161518 | 80 | 219 | 7.0 | 11.0 | 0.00 | 0.00 | 0.00 | 71 | 1005.2 |
| 20260505160518 | 80 | 218 | 7.0 | 12.0 | 0.00 | 0.00 | 0.00 | 72 | 1005.2 |
| 20260505152556 | 78 | 218 | 7.0 | 11.0 | 0.00 | 0.00 | 0.00 | 75 | 1005.4 |
| 20260505151536 | 78 | 222 | 6.0 | 10.0 | 0.00 | 0.00 | 0.00 | 75 | 1005.5 |
| 20260505150516 | 77 | 222 | 5.0 | 9.0 | 0.00 | 0.00 | 0.00 | 76 | 1005.6 |
| 20260505140517 | 74 | 217 | 5.0 | 11.0 | 0.00 | 0.00 | 0.00 | 81 | 1005.1 |
| 20260505124515 | 71 | 231 | 3.0 | 8.0 | 0.00 | 0.00 | 0.00 | 86 | 1004.9 |
| 20260505123516 | 71 | 215 | 4.0 | 12.0 | 0.00 | 0.00 | 0.00 | 86 | 1004.7 |
| 20260505122556 | 71 | 226 | 4.0 | 10.0 | 0.00 | 0.00 | 0.00 | 86 | 1004.7 |
| 20260505121516 | 71 | 223 | 4.0 | 8.0 | 0.00 | 0.00 | 0.00 | 87 | 1004.5 |
| 20260505120516 | 70 | 211 | 4.0 | 10.0 | 0.00 | 0.00 | 0.00 | 87 | 1004.3 |
| 20260505115536 | 70 | 221 | 3.0 | 8.0 | 0.00 | 0.00 | 0.00 | 87 | 1004.5 |
| 20260505114517 | 70 | 233 | 3.0 | 7.0 | 0.00 | 0.00 | 0.00 | 87 | 1004.5 |
| 20260505113537 | 70 | 223 | 3.0 | 8.0 | 0.00 | 0.00 | 0.00 | 87 | 1004.2 |
| 20260505112537 | 70 | 223 | 3.0 | 9.0 | 0.00 | 0.00 | 0.00 | 87 | 1004.4 |
| 20260505111517 | 71 | 223 | 3.0 | 9.0 | 0.00 | 0.00 | 0.00 | 87 | 1004.5 |
| 20260505110517 | 71 | 220 | 4.0 | 9.0 | 0.00 | 0.00 | 0.00 | 86 | 1004.3 |
| 20260505101518 | 71 | 216 | 4.0 | 12.0 | 0.00 | 0.00 | 0.00 | 86 | 1004.2 |
| 20260505100515 | 71 | 232 | 3.0 | 10.0 | 0.00 | 0.00 | 0.00 | 85 | 1004.3 |
| 20260505095536 | 71 | 230 | 5.0 | 10.0 | 0.00 | 0.00 | 0.00 | 85 | 1004.2 |
| 20260505094516 | 71 | 219 | 5.0 | 12.0 | 0.00 | 0.00 | 0.00 | 84 | 1004.3 |
| 20260505093516 | 72 | 225 | 5.0 | 12.0 | 0.00 | 0.00 | 0.00 | 84 | 1004.4 |
| 20260505092536 | 72 | 224 | 4.0 | 10.0 | 0.00 | 0.00 | 0.00 | 84 | 1004.5 |
| 20260505091516 | 72 | 221 | 4.0 | 10.0 | 0.00 | 0.00 | 0.00 | 84 | 1004.6 |
| 20260505090516 | 72 | 226 | 5.0 | 10.0 | 0.00 | 0.00 | 0.00 | 84 | 1004.6 |
| 20260505085516 | 72 | 210 | 5.0 | 11.0 | 0.00 | 0.00 | 0.00 | 84 | 1004.6 |
| 20260505084536 | 72 | 207 | 5.0 | 13.0 | 0.00 | 0.00 | 0.00 | 84 | 1004.6 |
| 20260505083517 | 72 | 219 | 4.0 | 11.0 | 0.00 | 0.00 | 0.00 | 84 | 1004.6 |
| 20260505082517 | 72 | 219 | 4.0 | 11.0 | 0.00 | 0.00 | 0.00 | 83 | 1004.7 |
| 20260505081537 | 72 | 223 | 4.0 | 10.0 | 0.00 | 0.00 | 0.00 | 83 | 1004.7 |
| 20260505080538 | 72 | 214 | 5.0 | 13.0 | 0.00 | 0.00 | 0.00 | 82 | 1004.6 |
| 20260505075517 | 72 | 207 | 4.0 | 10.0 | 0.00 | 0.00 | 0.00 | 82 | 1004.9 |
| 20260505074518 | 72 | 217 | 4.0 | 8.0 | 0.00 | 0.00 | 0.00 | 81 | 1005.1 |
| 20260505073518 | 73 | 217 | 4.0 | 11.0 | 0.00 | 0.00 | 0.00 | 81 | 1005.2 |
| 20260505072518 | 73 | 209 | 5.0 | 9.0 | 0.00 | 0.00 | 0.00 | 80 | 1005.4 |
| 20260505071516 | 73 | 210 | 4.0 | 12.0 | 0.00 | 0.00 | 0.00 | 80 | 1005.5 |
| 20260505070516 | 73 | 209 | 4.0 | 9.0 | 0.00 | 0.00 | 0.00 | 79 | 1005.7 |
| 20260505065516 | 73 | 221 | 6.0 | 10.0 | 0.00 | 0.00 | 0.00 | 78 | 1005.8 |
| 20260505064516 | 73 | 222 | 6.0 | 12.0 | 0.00 | 0.00 | 0.00 | 78 | 1006.0 |
| 20260505063517 | 73 | 221 | 5.0 | 12.0 | 0.00 | 0.00 | 0.00 | 77 | 1006.2 |
| 20260505062518 | 73 | 222 | 6.0 | 10.0 | 0.00 | 0.00 | 0.00 | 76 | 1006.1 |
| 20260505061517 | 73 | 222 | 4.0 | 8.0 | 0.00 | 0.00 | 0.00 | 76 | 1006.2 |
| 20260505060517 | 74 | 223 | 4.0 | 8.0 | 0.00 | 0.00 | 0.00 | 75 | 1006.1 |
| 20260505055517 | 74 | 223 | 4.0 | 9.0 | 0.00 | 0.00 | 0.00 | 74 | 1006.0 |
| 20260505054517 | 74 | 220 | 4.0 | 11.0 | 0.00 | 0.00 | 0.00 | 73 | 1005.8 |
| 20260505053518 | 75 | 224 | 5.0 | 10.0 | 0.00 | 0.00 | 0.00 | 72 | 1005.8 |